CW0570 Weather Reports


Display with metric or nautical units.
time (UTC)temp
F
wind
direction
speed
MPH
gust
MPH
rain 1hr
in
rain 24hr
in
rain mn
in
humidity
%
barometer
mb
20260510063039 53 28 0.0 5.0 0.00 0.00 0.00 93 1018.6
20260510061538 53 316 1.0 5.0 0.00 0.00 0.00 93 1018.6
20260510060044 53 313 0.0 2.0 0.00 0.00 0.00 93 1018.6
20260510054537 52 38 1.0 3.0 0.00 0.00 0.00 93 1018.6
20260510053037 53 346 0.0 1.0 0.00 0.00 0.00 92 1018.8
20260510051536 53 346 0.0 3.0 0.00 0.00 0.00 92 1018.7
20260510050037 54 327 0.0 2.0 0.00 0.00 0.00 91 1018.5
20260510044535 54 331 0.0 2.0 0.00 0.00 0.00 90 1018.4
20260510043035 55 330 1.0 4.0 0.00 0.00 0.00 90 1018.2
20260510041533 55 360 1.0 3.0 0.00 0.00 0.00 88 1018.1
20260510040034 56 5 2.0 5.0 0.00 0.00 0.00 87 1017.8
20260510034533 57 340 0.0 2.0 0.00 0.00 0.00 86 1017.7
20260510033043 58 315 1.0 3.0 0.00 0.00 0.00 85 1017.6
20260510031532 59 345 0.0 3.0 0.00 0.00 0.00 85 1017.4
20260510030032 60 344 0.0 2.0 0.00 0.00 0.00 84 1017.3
20260510024531 61 342 0.0 2.0 0.00 0.00 0.00 83 1017.1
20260510023031 62 321 0.0 3.0 0.00 0.00 0.00 80 1017.1
20260510021611 63 309 2.0 4.0 0.00 0.00 0.00 78 1017.2
20260510020031 65 302 1.0 3.0 0.00 0.00 0.00 75 1017.2
20260510014545 66 260 1.0 5.0 0.00 0.00 0.00 73 1017.3
20260510013032 66 293 0.0 2.0 0.00 0.00 0.00 73 1017.3
20260510011529 66 288 0.0 3.0 0.00 0.00 0.00 74 1017.2
20260510010037 65 138 0.0 4.0 0.00 0.00 0.00 75 1017.2
20260510004527 66 126 1.0 11.0 0.00 0.00 0.00 71 1017.0
20260510003028 68 234 2.0 8.0 0.00 0.00 0.00 68 1016.8
20260510001526 71 94 2.0 6.0 0.00 0.00 0.00 67 1016.6
20260510000025 71 254 1.0 7.0 0.00 0.00 0.00 67 1016.5
20260509234524 72 253 1.0 10.0 0.00 0.00 0.00 67 1016.6
20260509233026 72 153 2.0 5.0 0.00 0.00 0.00 66 1016.6
20260509231520 71 233 0.0 7.0 0.00 0.00 0.00 66 1016.7
20260509230026 71 19 2.0 6.0 0.00 0.00 0.00 68 1016.8
20260509224521 70 252 2.0 11.0 0.00 0.00 0.00 68 1017.0
20260509223018 72 339 3.0 11.0 0.00 0.00 0.00 64 1016.8
20260509221517 74 196 1.0 7.0 0.00 0.00 0.00 64 1016.8
20260509220016 74 200 1.0 7.0 0.00 0.00 0.00 63 1016.9
20260509214511 73 275 2.0 5.0 0.00 0.00 0.00 64 1017.0
20260509213010 71 135 0.0 4.0 0.00 0.00 0.00 68 1017.2
20260509211505 71 165 1.0 10.0 0.00 0.00 0.00 69 1017.4
20260509210005 71 241 3.0 8.0 0.00 0.00 0.00 69 1017.4
20260509204504 71 179 2.0 7.0 0.00 0.00 0.00 68 1017.3
20260509203004 70 129 0.0 5.0 0.00 0.00 0.00 71 1017.4
20260509201507 69 151 2.0 8.0 0.00 0.00 0.00 70 1017.5
20260509200002 70 289 1.0 4.0 0.00 0.00 0.00 70 1017.5
20260509194501 69 204 1.0 7.0 0.00 0.00 0.00 71 1017.4
20260509193100 70 262 2.0 9.0 0.00 0.00 0.00 69 1017.4
20260509191609 71 351 1.0 4.0 0.00 0.00 0.00 65 1017.3
20260509190056 70 320 2.0 5.0 0.00 0.00 0.00 67 1017.3
20260509184604 69 86 1.0 4.0 0.00 0.00 0.00 67 1017.4
20260509183058 69 219 0.0 4.0 0.00 0.00 0.00 68 1017.6
20260509181552 68 316 0.0 3.0 0.00 0.00 0.00 72 1017.6
20260509180053 65 5 0.0 3.0 0.00 0.00 0.00 74 1017.7
20260509174540 62 13 2.0 4.0 0.00 0.00 0.00 77 1017.5
20260509173051 59 17 0.0 4.0 0.00 0.00 0.00 84 1017.6
20260509171536 56 355 0.0 2.0 0.00 0.00 0.00 91 1017.8
20260509170026 54 215 0.0 1.0 0.00 0.00 0.00 92 1018.1
20260509164521 52 275 0.0 0.0 0.00 0.00 0.00 93 1018.3
20260509163018 51 306 0.0 0.0 0.00 0.00 0.00 93 1018.7
20260509161516 50 306 0.0 0.0 0.00 0.00 0.00 93 1018.8
20260509160013 49 306 0.0 2.0 0.00 0.00 0.00 93 1019.0
20260509154509 49 306 0.0 2.0 0.00 0.00 0.00 93 1019.2
20260509153020 49 349 0.0 2.0 0.00 0.00 0.00 94 1019.2
20260509151507 48 217 0.0 2.0 0.00 0.00 0.00 94 1019.4
20260509150005 48 273 0.0 2.0 0.00 0.00 0.00 95 1019.4
20260509144504 48 273 0.0 2.0 0.00 0.00 0.00 95 1019.5
20260509143003 48 273 0.0 2.0 0.00 0.00 0.00 95 1019.5
20260509141503 47 252 0.0 2.0 0.00 0.00 0.00 95 1019.5
20260509140003 48 252 0.0 2.0 0.00 0.00 0.00 95 1019.5
20260509134502 48 252 0.0 2.0 0.00 0.00 0.00 95 1019.4
20260509133002 48 252 0.0 0.0 0.00 0.00 0.00 95 1019.3
20260509131501 48 252 0.0 2.0 0.00 0.00 0.00 95 1019.2
20260509130100 48 252 0.0 0.0 0.00 0.00 0.00 95 1019.3
20260509124559 48 252 0.0 2.0 0.00 0.00 0.00 94 1019.4
20260509123058 48 252 0.0 3.0 0.00 0.00 0.00 94 1019.4
20260509121558 48 286 0.0 2.0 0.00 0.00 0.00 94 1019.5
20260509120055 48 286 0.0 0.0 0.00 0.00 0.00 94 1019.5
20260509114553 48 286 0.0 2.0 0.00 0.00 0.00 95 1019.7
20260509113052 48 286 0.0 0.0 0.00 0.00 0.00 95 1019.8
20260509111554 48 286 0.0 2.0 0.00 0.00 0.00 95 1019.9
20260509110050 48 227 0.0 2.0 0.00 0.00 0.00 95 1020.0
20260509104553 48 226 0.0 2.0 0.00 0.00 0.00 94 1020.0
20260509103052 48 226 0.0 2.0 0.00 0.00 0.00 94 1020.1
20260509101545 48 113 0.0 0.0 0.00 0.00 0.00 95 1020.2
20260509100042 48 113 0.0 1.0 0.00 0.00 0.00 95 1020.5
20260509094553 48 112 0.0 2.0 0.00 0.00 0.00 95 1020.6
20260509093041 48 112 0.0 2.0 0.00 0.00 0.00 95 1020.6
20260509091547 48 112 0.0 1.0 0.00 0.00 0.00 95 1020.7
20260509090048 48 122 0.0 2.0 0.00 0.00 0.00 94 1020.8
20260509084535 49 122 0.0 2.0 0.00 0.00 0.00 94 1021.0
20260509083032 49 335 0.0 2.0 0.00 0.00 0.00 94 1021.2
20260509081532 49 335 0.0 2.0 0.00 0.00 0.00 95 1021.3
20260509080029 48 333 0.0 3.0 0.00 0.00 0.00 95 1021.3
20260509074526 48 9 0.0 0.0 0.00 0.00 0.00 95 1021.4
20260509073034 48 9 0.0 0.0 0.00 0.00 0.00 95 1021.3
20260509071522 47 9 0.0 0.0 0.00 0.00 0.00 95 1021.3
20260509070019 47 9 0.0 0.0 0.00 0.00 0.00 95 1021.6
20260509064518 47 9 0.0 0.0 0.00 0.00 0.00 94 1021.6